GAOFEN 4                
1 41194U 15083A   19266.53212647 -.00000346  00000-0  00000+0 0  9993
2 41194   0.0146 222.1016 0005024 353.5053  83.7994  1.00270400 13830
CZ-3B R/B               
1 41195U 15083B   19266.10756774  .00201420 -45492-6  53572-3 0  9993
2 41195  22.6730 177.4521 4557311 201.0063 131.8284  6.60396609 59148